This demonstration page uses our WeatherBlox Daily Observations layout. Learn more.

Left ArrowRight Arrow

41.86663, -103.66717

Hourly Observations for January 17, 2020

Temp ( °F °C ) Dew Point ( °F °C ) Humidity (%) Winds ( mph kmh ) Pressure ( in mb ) Visibility ( mi km ) Precip ( " mm )
12:53 am 00:53 Clear 26 -3.3 19 -7.2 75 75 E 10 17 29.97 1015 10 16.0934 0 0
1:53 am 01:53 Clear 26 -3.3 20 -6.7 78 78 E 13 20 29.93 1013 10 16.0934 0 0
2:53 am 02:53 Clear 27 -2.8 22 -5.6 81 81 E 14 22 29.9 1012 10 16.0934 0 0
3:53 am 03:53 Clear 26 -3.3 22 -5.6 84 84 ESE 14 22 29.86 1011 10 16.0934 0 0
4:53 am 04:53 Clear 25 -3.9 21 -6.1 85 85 ESE 14 22 29.85 1011 10 16.0934 0 0
5:53 am 05:53 Clear 24 -4.4 21 -6.1 88 88 ESE 15 24 29.87 1012 10 16.0934 0 0
6:53 am 06:53 Mostly Clear 23 -5 21 -6.1 92 92 ESE 13 20 29.85 1011 10 16.0934 0 0
7:34 am 07:34 Mostly Cloudy 25 -3.9 23 -5 92 92 ESE 9 15 29.93 1014 9 14.48406 0 0
7:53 am 07:53 Mostly Cloudy 26 -3.3 24 -4.4 92 92 ESE 12 19 29.82 1010 8 12.87472 0 0
8:06 am 08:06 Cloudy 27 -2.8 25 -3.9 92 92 ESE 10 17 29.89 1012 9 14.48406 0 0
8:30 am 08:30 Cloudy 27 -2.8 25 -3.9 92 92 ESE 10 17 29.89 1012 9 14.48406 0 0
8:53 am 08:53 Cloudy 28 -2.2 25 -3.9 88 88 SE 10 17 29.8 1009 10 16.0934 0 0
9:04 am 09:04 Cloudy 28 -2 27 -3 93 93 ESE 10 17 29.86 1011 10 16.0934 0 0
9:20 am 09:20 Cloudy 29 -1.7 26 -3.3 89 89 ESE 9 15 29.86 1011 10 16.0934 0 0
9:53 am 09:53 Cloudy 30 -1.1 26 -3.3 85 85 E 8 13 29.78 1009 10 16.0934 0 0
10:53 am 10:53 Cloudy 32 0 27 -2.8 82 82 E 6 9 29.75 1008 10 16.0934 0 0
11:53 am 11:53 Cloudy 33 0.6 26 -3.3 75 75 WNW 5 7 29.75 1008 10 16.0934 0 0
12:53 pm 12:53 Partly Cloudy 35 1.7 26 -3.3 70 70 WNW 7 11 29.73 1007 10 16.0934 0 0
1:53 pm 13:53 Cloudy 43 6.1 33 0.6 68 68 SW 6 9 29.67 1005 10 16.0934 0.001 0.001
2:53 pm 14:53 Mostly Sunny 43 6.1 30 -1.1 60 60 Calm 29.67 1005 10 16.0934 0 0
3:53 pm 15:53 Sunny 39 3.9 29 -1.7 67 67 Calm 29.7 1006 10 16.0934 0 0
4:53 pm 16:53 Mostly Cloudy 45 7.2 27 -2.8 49 49 W 18 30 29.72 1006 10 16.0934 0 0
5:53 pm 17:53 Mostly Clear 34 1.1 19 -7.2 54 54 NNW 31 50 29.87 1012 10 16.0934 0 0
6:53 pm 18:53 Clear 29 -1.7 18 -7.8 63 63 NW 36 57 30.01 1016 10 16.0934 0 0
7:53 pm 19:53 Cloudy 27 -2.8 16 -8.9 63 63 NW 31 50 30.07 1018 10 16.0934 0 0
8:53 pm 20:53 Windy with Snow Likely 26 -3.3 16 -8.9 66 66 NW 30 48 30.13 1020 8 12.87472 0.001 0.001
9:53 pm 21:53 Partly Cloudy 25 -3.9 13 -10.6 60 60 WNW 24 39 30.16 1022 10 16.0934 0.001 0.001
10:53 pm 22:53 Clear 24 -4.4 11 -11.7 57 57 WNW 23 37 30.22 1023 10 16.0934 0 0
11:53 pm 23:53 Clear 24 -4.4 11 -11.7 57 57 WNW 16 26 30.24 1024 10 16.0934 0 0

Powered by AerisWeather